カタログに戻る

SL-8 R/B

運用中PO
NORAD 12804·ROCKET BODY·🇷🇺 Russia

打ち上げ Sep 4, 1981 から Plesetsk Cosmodrome

Loading…

次のパス (今後24時間)

TLE

最新Source: Space-Track

元期: Sep 14, 2026, 13:42 UTC

1 12804U 81087B   26257.57125044  .00000129  00000-0  91964-4 0  9994
2 12804  82.9279 296.3656 0041696 213.3750 310.3829 13.89800867281971

AllMySatでSL-8 R/Bをリアルタイム追跡

Download on the App Store